Location: Franzen
(48.6167°N, 15.3833°E)
Time: 13:20:34
(UTC+00:00)

Transit 2A Rocket - Pass Details

Date: 02 August 2021
Orbit: 586 x 917 km, 66.7° (Epoch: 27 September)

Event Time Altitude Azimuth Distance (km) Brightness Sun altitude
Rises 21:46:29 0° 321° (NW) 3,270 9.5 -21.6°
Reaches altitude 10° 21:48:53 10° 316° (NW) 2,388 8.5 -21.7°
Maximum altitude 21:54:12 49° 243° (WSW) 1,084 5.6 -22.0°
Enters shadow 21:55:42 40° 200° (SSW) 1,255 5.7 -22.1°
